This is the latest recevied weather packets stored in our database for station/object WA4TPR. If no packets are shown the sender has not sent any weather packets the latest 10 day(s).
| Time | Temp. | Humidity | Pressure | Rain* | Wind** | Luminosity | Snow |
|---|---|---|---|---|---|---|---|
| 1777754589 | 31.11° C | 58% | 1013.8 hPa | 0 mm | - | 283 W/m² | - |
| 1777754286 | 31.11° C | 56% | 1013.8 hPa | 0 mm | - | 268 W/m² | - |
| 1777753984 | 31.67° C | 57% | 1014 hPa | 0 mm | - | 272 W/m² | - |
| 1777753683 | 31.67° C | 58% | 1014.1 hPa | 0 mm | - | 428 W/m² | - |
| 1777753381 | 31.67° C | 58% | 1014 hPa | 0 mm | - | 311 W/m² | - |
| 1777753079 | 31.67° C | 57% | 1013.8 hPa | 0 mm | - | 345 W/m² | - |
| 1777752775 | 31.67° C | 55% | 1013.9 hPa | 0 mm | - | 481 W/m² | - |
| 1777752471 | 31.67° C | 56% | 1014 hPa | 0 mm | - | 374 W/m² | - |
| 1777752167 | 31.67° C | 55% | 1013.8 hPa | 0 mm | - | 397 W/m² | - |
| 1777751866 | 31.67° C | 54% | 1013.9 hPa | 0 mm | - | 426 W/m² | - |
| 1777751562 | 32.22° C | 53% | 1014 hPa | 0 mm | - | 359 W/m² | - |
| 1777751258 | 32.22° C | 53% | 1014 hPa | 0 mm | - | 461 W/m² | - |
| 1777750956 | 32.22° C | 53% | 1014.2 hPa | 0 mm | - | 428 W/m² | - |
| 1777750651 | 32.22° C | 53% | 1014.2 hPa | 0 mm | - | 568 W/m² | - |
| 1777750349 | 32.22° C | 55% | 1014.2 hPa | 0 mm | - | 593 W/m² | - |
| 1777750049 | 32.22° C | 55% | 1014.3 hPa | 0 mm | - | 554 W/m² | - |
| 1777749747 | 32.22° C | 56% | 1014.2 hPa | 0 mm | - | 612 W/m² | - |
| 1777749443 | 32.22° C | 56% | 1014.5 hPa | 0 mm | - | 560 W/m² | - |
| 1777749141 | 32.22° C | 55% | 1014.4 hPa | 0 mm | - | 586 W/m² | - |
| 1777748838 | 32.22° C | 56% | 1014.3 hPa | 0 mm | - | 503 W/m² | - |
| 1777748536 | 32.22° C | 55% | 1014.5 hPa | 0 mm | - | 618 W/m² | - |
| 1777748235 | 32.22° C | 54% | 1014.4 hPa | 0 mm | - | 557 W/m² | - |
| 1777747932 | 32.22° C | 53% | 1014.5 hPa | 0 mm | - | 693 W/m² | - |
| 1777747628 | 32.22° C | 54% | 1014.5 hPa | 0 mm | - | 780 W/m² | - |
| 1777747324 | 32.22° C | 54% | 1014.5 hPa | 0 mm | - | 677 W/m² | - |
* Rain latest hour (hover to see other rain measurements)
** Current wind speed in m/s (hover to see current wind gust speed)